Sigfox identifier Datetime Temperature Humidity SNR
003BD39E 2018-10-09 08:06:08 20.4 37 11.9
003BD39E 2018-10-09 06:01:32 20.5 37 12
003BD39E 2018-10-09 04:59:13 20.5 37 11.7
003BD39E 2018-10-09 01:52:22 20.5 36 11.5
003BD39E 2018-10-09 00:50:03 20.5 36 11.2
003BD39E 2018-10-08 23:47:44 20.5 36 11.1
003BD39E 2018-10-08 22:45:28 20.5 36 10.9
003BD39E 2018-10-08 21:43:13 20.4 36 10.8
003BD39E 2018-10-08 20:40:59 20.4 36 10.8
003BD39E 2018-10-08 19:38:43 20.4 36 10.6
003BD39E 2018-10-08 18:36:27 20.4 36 10.4
003BD39E 2018-10-08 17:34:15 20.4 36 10.2
003BD39E 2018-10-08 16:31:59 20.4 35 9.2
003BD39E 2018-10-08 13:25:16 20.4 35 8.9
003BD39E 2018-10-08 11:20:50 20.4 33 8.7
003BD39E 2018-10-08 08:14:15 20.3 31 8.7
003BD39E 2018-10-08 07:12:02 20.3 32 8.9
003BD39E 2018-10-08 06:09:49 20.3 33 9.4
003BD39E 2018-10-08 05:07:36 20.2 33 9.1
003BD39E 2018-10-08 04:05:20 20.3 33 9.3
003BD39E 2018-10-08 03:03:07 20.3 34 9.3
003BD39E 2018-10-08 02:00:53 20.4 34 9.4
003BD39E 2018-10-08 00:58:39 20.4 35 9.4
003BD39E 2018-10-07 23:56:26 20.4 35 9.8
003BD39E 2018-10-07 22:54:16 20.4 36 9.9
003BD39E 2018-10-07 21:52:03 20.4 36 9.9
003BD39E 2018-10-07 20:49:51 20.4 37 10.3
003BD39E 2018-10-07 19:47:39 20.4 37 10.7
003BD39E 2018-10-07 18:45:28 20.5 38 10.8
003BD39E 2018-10-07 17:43:14 20.4 38 11.2
003BD39E 2018-10-07 16:41:09 20.4 38 11.1
003BD39E 2018-10-07 15:38:56 20.4 37 11.1
003BD39E 2018-10-07 14:36:48 20.4 37 11.3
003BD39E 2018-10-07 13:34:36 20.4 37 11.4
003BD39E 2018-10-07 12:32:25 20.4 37 11.5
003BD39E 2018-10-07 11:30:16 20.4 37 11.6
003BD39E 2018-10-07 06:19:33 20.5 38 11.7
003BD39E 2018-10-07 05:17:23 20.6 38 11.7
003BD39E 2018-10-07 04:15:08 20.6 39 11.8
003BD39E 2018-10-07 03:12:58 20.6 39 11.9
003BD39E 2018-10-07 02:10:45 20.6 39 12
003BD39E 2018-10-07 01:08:32 20.6 39 12
003BD39E 2018-10-07 00:06:21 20.6 39 11.7
003BD39E 2018-10-06 23:04:09 20.6 39 11.8
003BD39E 2018-10-06 22:02:02 20.6 39 11.7
003BD39E 2018-10-06 20:59:48 20.6 39 11.7
003BD39E 2018-10-06 19:57:41 20.6 39 11.7
003BD39E 2018-10-06 18:55:27 20.7 39 11.8
003BD39E 2018-10-06 17:53:15 20.8 39 11.6
003BD39E 2018-10-06 16:51:07 20.7 39 11.6
003BD39E 2018-10-06 15:48:58 20.7 40 11.6
003BD39E 2018-10-06 14:46:47 20.7 40 11.4
003BD39E 2018-10-06 13:44:33 20.7 39 11
003BD39E 2018-10-06 12:42:23 20.7 39 11.1
003BD39E 2018-10-06 11:40:14 20.6 39 10.6
003BD39E 2018-10-06 10:38:08 20.7 39 10.6
003BD39E 2018-10-06 09:35:57 20.7 39 10.6
003BD39E 2018-10-06 07:31:32 20.8 39 10.5
003BD39E 2018-10-06 06:29:20 20.8 40 10.3
003BD39E 2018-10-06 05:27:07 20.8 40 10.3
003BD39E 2018-10-06 04:24:57 20.8 41 10.4
003BD39E 2018-10-06 03:22:49 20.8 41 10.3
003BD39E 2018-10-06 02:20:37 20.9 41 10.3
003BD39E 2018-10-06 01:18:27 20.9 42 10.3
003BD39E 2018-10-06 00:16:15 21 42 10.4
003BD39E 2018-10-05 23:14:02 21 43 10.1
003BD39E 2018-10-05 22:11:54 21 43 10
003BD39E 2018-10-05 20:07:29 21.2 44 10
003BD39E 2018-10-05 19:05:15 21.2 45 9.4
003BD39E 2018-10-05 18:03:01 21.4 45 8.2
003BD39E 2018-10-05 17:00:47 21.4 46 7.1
003BD39E 2018-10-05 15:58:34 21.5 48 0